COSMOS 44

Satellite information

Favourite Embed

Satellite Type and Status

PAYLOADIN ORBIT

Key statistics

Satellite COSMOS 44 at a glance.

Uptime

22282

Days in orbit

Revolutions

≈ 14.7

Per day

Orbit

LEO

Low Earth Orbit

Inclination

65.1

Latest

Satellite identification and parameters

Extended collection of information and parameters for COSMOS 44.

Object identification

Identified? True

Debris? False

Object name: COSMOS 44

International designator: 1964-053A

Object number (NORAD): 876

Object ID (CCSDS): 876

Country: COMMONWEALTH OF INDEPENDENT STATES (CIS)

Current information (Y/N): Y

RCS size: LARGE

Orbital parameters

Period: 98.263 minutes

Inclination: 65.0599 deg

SMA: 7053.77 km

Apoapsis: 768.27 km

Periapsis: 583.0 km

RAAN: 106.3346 deg

Eccentricy: 0.01313272

Argument of periapsis: 9.4181 deg

Mean anomaly: 350.9336 deg

Mean motion: 14.6544942 rev/day

Mean motion (dot): 0.00000304 rev/day2

B* drag term: 0.000072085188 1/REarth

Two-line elements (TLE)

Creation date: Aug. 30, 2025, 3:38 a.m.

Reference frame: TEME

Reference center: EARTH

Epoch: Aug. 29, 2025, 9:27 p.m. UTC

TLE line 0: 0 COSMOS 44

TLE line 1: 1 00876U 64053A 25241.89380490 .00000304 00000-0 72085-4 0 9997

TLE line 2: 2 00876 65.0599 106.3346 0131327 9.4181 350.9336 14.65449420245986

Live tracking on map

Real-time ground track for satellite COSMOS 44.

In-orbit conjunctions

A list of the most updated potential collisions computed for object COSMOS 44.

Target Orbit TCA Probability of collision Miss distance Type
FENGYUN 1C DEB SSO 2025-07-09 06:18:08 0.0001349713 240.0 (m) DEBRIS
DELTA 1 DEB SSO 2024-11-04 12:29:52 0.0001794924 206.0 (m) DEBRIS
COSMOS 2251 DEB LEO 2024-10-16 09:18:00 0.0001973212 634.0 (m) DEBRIS
CZ-6A DEB SSO 2024-09-17 12:36:29 0.0003285983 63.0 (m) DEBRIS
CZ-6A DEB SSO 2024-06-16 14:30:59 0.0001472267 420.0 (m) DEBRIS

Associated space launch

The Meteor-1 series was the first series of Soviet meteorological satellites.

COSMOS 44 was lifted into orbit during the mission ‘Vostok 8A92M | Meteor-1 1’, on board a Vostok 8A92M space rocket.

The launch took place on Aug. 28, 1964, 4 p.m. from 31/6.

For more information about the launch, click the button.

Launch to space Vostok 8A92M | Meteor-1 1
Vostok 8A92M | Meteor-1 1

Agency: N/A

Status: Launch Successful

Launch date: Aug. 28, 1964, 4 p.m. UTC

Rocket: Vostok 8A92M

Launch pad: 31/6

Location: Baikonur Cosmodrome, Republic of Kazakhstan

...

Latest news about this satellite

There are no fresh news available about this satellite. Check back as we update our databases every day.


Newsletter sign-up

Weekly statistics, charts and insights to help you stay on top of the space industry.